TimeCDT,TemperatureF,Dew PointF,Humidity,Sea Level PressureIn,VisibilityMPH,Wind Direction,Wind SpeedMPH,Gust SpeedMPH,PrecipitationIn,Events,Conditions,WindDirDegrees,DateUTC
6:55 AM,32.0,32.0,100,30.23,7.0,North,4.6,-,0.06,Rain,Light Rain,360,2013-05-03 11:55:00
7:03 AM,32.0,32.0,100,30.18,6.0,North,6.9,-,N/A,Rain,Rain,360,2013-05-03 12:03:00
7:58 AM,32.0,32.0,100,30.21,7.0,North,8.1,-,N/A,Rain,Light Rain,360,2013-05-03 12:58:00
8:58 AM,33.8,32.0,93,30.19,10.0,North,4.6,-,N/A,Rain,Light Rain,10,2013-05-03 13:58:00
9:58 AM,33.8,32.0,93,30.19,10.0,North,8.1,-,N/A,,Overcast,10,2013-05-03 14:58:00
10:19 AM,35.6,32.0,87,30.14,10.0,North,9.2,-,N/A,Rain,Light Rain,350,2013-05-03 15:19:00
10:58 AM,35.6,33.8,93,30.17,10.0,North,9.2,-,N/A,Rain,Light Rain,360,2013-05-03 15:58:00
11:58 AM,37.4,35.6,93,30.16,10.0,North,6.9,-,N/A,Rain,Light Rain,10,2013-05-03 16:58:00
12:58 PM,37.4,35.6,93,30.15,7.0,NNE,8.1,-,N/A,Rain,Light Rain,20,2013-05-03 17:58:00
1:00 PM,37.4,35.6,93,30.11,7.0,NNE,6.9,-,N/A,Rain,Light Rain,30,2013-05-03 18:00:00
1:05 PM,37.4,35.6,93,30.10,8.0,NNE,9.2,-,N/A,Rain,Light Rain,20,2013-05-03 18:05:00
1:20 PM,37.4,35.6,93,30.10,9.0,NNE,12.7,-,N/A,Rain,Light Rain,20,2013-05-03 18:20:00
1:25 PM,37.4,35.6,93,30.09,10.0,NNE,11.5,-,N/A,Rain,Light Rain,20,2013-05-03 18:25:00
1:58 PM,38.1,36.5,94,30.13,10.0,NNE,10.4,-,0.05,Rain,Light Rain,20,2013-05-03 18:58:00
2:03 PM,37.4,37.4,100,30.09,10.0,NNE,8.1,-,N/A,Rain,Light Rain,30,2013-05-03 19:03:00
2:18 PM,37.4,37.4,100,30.10,8.0,NE,8.1,-,N/A,Rain,Light Rain,40,2013-05-03 19:18:00
2:58 PM,38.7,37.4,95,30.11,8.0,NE,10.4,-,0.06,Rain,Light Rain,40,2013-05-03 19:58:00
3:38 PM,39.2,37.4,93,30.08,8.0,ENE,6.9,-,N/A,Rain,Light Rain,70,2013-05-03 20:38:00
3:58 PM,39.2,38.1,96,30.11,7.0,NNE,2.3,-,0.07,Rain,Light Rain,20,2013-05-03 20:58:00
4:38 PM,39.2,39.2,100,30.06,9.0,NE,6.9,-,N/A,Rain,Light Rain,40,2013-05-03 21:38:00
4:43 PM,39.2,39.2,100,30.06,7.0,NNE,8.1,-,N/A,Rain,Light Rain,30,2013-05-03 21:43:00
4:48 PM,39.2,39.2,100,30.06,7.0,NE,6.9,-,N/A,Rain,Light Rain,40,2013-05-03 21:48:00
4:53 PM,39.2,39.2,100,30.06,9.0,NNE,8.1,-,N/A,Rain,Light Rain,20,2013-05-03 21:53:00
4:58 PM,40.1,39.4,97,30.10,10.0,NNE,8.1,-,0.06,Rain,Light Rain,20,2013-05-03 21:58:00
5:28 PM,41.0,39.2,93,30.06,8.0,North,6.9,-,N/A,Rain,Light Rain,10,2013-05-03 22:28:00
5:33 PM,41.0,39.2,93,30.06,8.0,North,8.1,-,N/A,Rain,Light Rain,10,2013-05-03 22:33:00
5:38 PM,41.0,39.2,93,30.06,10.0,North,5.8,-,N/A,Rain,Light Rain,10,2013-05-03 22:38:00
5:58 PM,40.3,39.6,97,30.11,4.0,North,5.8,-,0.04,Rain,Rain,360,2013-05-03 22:58:00
6:08 PM,41.0,39.2,93,30.07,4.0,North,5.8,-,N/A,Rain,Rain,360,2013-05-03 23:08:00
6:58 PM,40.5,39.9,98,30.10,6.0,NNE,5.8,-,0.04,Rain,Light Rain,20,2013-05-03 23:58:00
7:58 PM,40.5,40.3,99,30.09,8.0,NNE,8.1,-,0.06,Rain,Light Rain,20,2013-05-04 00:58:00
8:13 PM,41.0,41.0,100,30.05,8.0,North,5.8,-,N/A,Rain,Light Rain,10,2013-05-04 01:13:00
8:40 PM,41.0,41.0,100,30.06,10.0,NNE,5.8,-,N/A,,Overcast,20,2013-05-04 01:40:00
8:58 PM,40.6,40.3,99,30.11,10.0,North,4.6,-,0.02,,Overcast,10,2013-05-04 01:58:00
9:24 PM,41.0,41.0,100,30.07,8.0,North,4.6,-,N/A,Rain,Light Rain,350,2013-05-04 02:24:00
9:34 PM,41.0,41.0,100,30.07,10.0,North,5.8,-,N/A,,Overcast,360,2013-05-04 02:34:00
9:58 PM,40.8,40.6,99,30.11,10.0,North,4.6,-,0.00,,Overcast,350,2013-05-04 02:58:00
10:12 PM,41.0,41.0,100,30.06,10.0,North,5.8,-,N/A,,Overcast,350,2013-05-04 03:12:00
10:31 PM,41.0,41.0,100,30.06,10.0,NNW,5.8,-,N/A,,Overcast,340,2013-05-04 03:31:00
10:58 PM,40.8,40.5,99,30.09,10.0,NNW,5.8,-,0.00,,Overcast,340,2013-05-04 03:58:00
11:58 PM,40.8,40.6,99,30.09,10.0,North,4.6,-,N/A,,Overcast,360,2013-05-04 04:58:00